Content
SEND FEEDBACK

Daily
Averages
Monthly
Summary
United States of America

ABERDEEN, SOUTH DAKOTA


Home > North America > United States > South Dakota
Elevation: 399 meters     Latitude: 45 27N     Longitude: 098 25W

WEATHER
 
SELECT A DAY
Number of Records: 209,728;   Date Range: 1/1/95 - 7/7/14
 
SHARE

PRINT THIS DATA

[ ← Previous Day ]
WEATHER ALMANAC - 31 JANUARY, 2013
[ Next Day → ]
[ °F ]   °C
Weather ElementAverageHighLow
Temperature-24.7 °C-21.1 °C (3:53 pm)-32.8 °C (11:53 pm)
Dewpoint-29.2 °C-27 °C (3:38 am)-35.6 °C (11:53 pm)
Humidity67.6 %81 % (9:53 pm)59 % (3:53 pm)
Barometer1025.7 hPa1031.8 hPa (7:53 pm)1017.3 hPa (3:38 am)
Wind Speed24.6 km/h38.9 km/h (4:36 am)
Wind Gust46.3 km/h (4:16 am)
Weather ElementAverage
Visibility11.6 km
Wind DirectionWNW (301.3 °)

Weather ElementTotal
Precipitation---
Heating Degree Days45.3 (Base 18.3)
Averaged from 31 records on 31 January, 2013
WEATHER CONDITIONS BREAKOUT
WIND DIRECTION BREAKOUT
WEATHER BY HOUR - 31 JANUARY, 2013
[ °F ]   °C
Local TimeTemperatureDewpointHumidityBarometerVisibilityWind DirectionWind SpeedGust SpeedPrecipitationEventsConditions
1:53 AM-23.9 °C-28.3 °C68 %1020 hPa16.1 kmNW (320°)18.5 km/hMostly Cloudy
2:53 AM-23.3 °C-27.8 °C68 %1020.7 hPa12.9 kmNNW (330°)31.5 km/hOvercast
3:38 AM-23 °C-27 °C71 %1017.3 hPa4 kmNNW (330°)31.5 km/h44.4 km/h0 mmSnowLight Snow
3:48 AM-23 °C-27 °C71 %1017.3 hPa4.8 kmNNW (330°)31.5 km/h0 mmSnowLight Snow
3:53 AM-23.3 °C-27.2 °C71 %1021.3 hPa4.8 kmNNW (330°)29.6 km/h0 mmSnowLight Snow
4:16 AM-23 °C-28 °C65 %1017.6 hPa4 kmNNW (330°)31.5 km/h46.3 km/h0 mmSnowLight Snow
4:25 AM-23 °C-28 °C65 %1017.9 hPa4.8 kmNNW (330°)29.6 km/h0 mmSnowLight Snow
4:36 AM-24 °C-28 °C70 %1018.3 hPa4 kmNW (320°)38.9 km/h46.3 km/h0 mmSnowLight Snow
4:53 AM-23.9 °C-28.3 °C68 %1022.7 hPa4 kmNNW (330°)33.3 km/h0 mmSnowLight Snow
5:02 AM-24 °C-28 °C70 %1018.6 hPa4.8 kmNNW (330°)33.3 km/h0 mmSnowLight Snow
5:19 AM-24 °C-28 °C70 %1019 hPa3.2 kmNNW (330°)27.8 km/h0 mmSnowLight Snow
5:53 AM-23.9 °C-28.9 °C64 %1023.7 hPa8 kmNNW (330°)35.2 km/h46.3 km/h0 mmHaze
6:25 AM-25 °C-29 °C70 %1020.3 hPa16.1 kmNW (320°)25.9 km/hMostly Cloudy
6:53 AM-25 °C-29.4 °C68 %1025.1 hPa14.5 kmNNW (330°)29.6 km/h42.6 km/hOvercast
7:53 AM-24.4 °C-28.9 °C67 %1026.8 hPa16.1 kmNW (320°)22.2 km/hOvercast
8:53 AM-25 °C-30 °C64 %1028.1 hPa16.1 kmNW (320°)24.1 km/hClear
9:53 AM-24.4 °C-30 °C61 %1029.1 hPa16.1 kmNW (320°)27.8 km/hClear
10:53 AM-23.9 °C-29.4 °C62 %1030.1 hPa11.3 kmNW (320°)31.5 km/hClear
11:53 AM-23.9 °C-28.9 °C64 %1030.5 hPa4.8 kmNNW (330°)35.2 km/hHaze
12:53 PM-22.8 °C-28.3 °C62 %1030.8 hPa12.9 kmNW (320°)29.6 km/h42.6 km/hClear
1:53 PM-22.2 °C-27.8 °C61 %1030.5 hPa16.1 kmNW (320°)33.3 km/hClear
2:53 PM-21.7 °C-27.2 °C62 %1030.8 hPa16.1 kmNW (320°)31.5 km/hClear
3:53 PM-21.1 °C-27.2 °C59 %1030.8 hPa16.1 kmNW (310°)27.8 km/hClear
4:53 PM-21.7 °C-27.8 °C59 %1030.8 hPa16.1 kmNW (310°)24.1 km/h33.3 km/hClear
5:53 PM-23.3 °C-28.3 °C65 %1030.8 hPa16.1 kmWNW (290°)13 km/hClear
6:53 PM-23.9 °C-28.9 °C64 %1031.2 hPa16.1 kmWest (280°)11.1 km/hClear
7:53 PM-28.3 °C-31.7 °C74 %1031.8 hPa16.1 kmWest (280°)5.6 km/hClear
8:53 PM-30.6 °C-33.3 °C78 %1031.5 hPa16.1 kmWest (260°)5.6 km/hClear
9:53 PM-32.2 °C-34.4 °C81 %1031.5 hPa16.1 kmSW (230°)5.6 km/hClear
10:53 PM-31.7 °C-34.4 °C78 %1031.2 hPa16.1 kmSW (220°)7.4 km/hClear
11:53 PM-32.8 °C-35.6 °C77 %1030.8 hPa16.1 kmCalmClear
Hourly data recorded from KABR, located 0 kilometers away from Aberdeen, South Dakota







STORIES FROM OUR PARTNERS